Satellite: NOAA-11
Catalog number: 19531
Epoch time:      10209.67899019
Element set:    0161
Inclination:      098.7699 deg
RA of node:       297.9982 deg
Eccentricity:    0.0012158
Arg of perigee:   033.1182 deg
Mean anomaly:     327.0762 deg
Mean motion:   14.14929942 rev/day
Decay rate:      -2.46e-06 rev/day^2
Epoch rev:           12700
Checksum:              324

Satellite: NOAA-12
Catalog number: 21263
Epoch time:      10209.68918275
Element set:    0650
Inclination:      098.7647 deg
RA of node:       222.8422 deg
Eccentricity:    0.0013288
Arg of perigee:   048.8181 deg
Mean anomaly:     311.4143 deg
Mean motion:   14.25645696 rev/day
Decay rate:        3.2e-07 rev/day^2
Epoch rev:           99831
Checksum:              312

Satellite: MET-3/5
Catalog number: 21655
Epoch time:      10209.58321169
Element set:    0874
Inclination:      082.5577 deg
RA of node:       279.3902 deg
Eccentricity:    0.0012343
Arg of perigee:   243.3329 deg
Mean anomaly:     116.6480 deg
Mean motion:   13.17022434 rev/day
Decay rate:        5.1e-07 rev/day^2
Epoch rev:           91112
Checksum:              282

Satellite: MET-2/21
Catalog number: 22782
Epoch time:      10210.52260606
Element set:     842
Inclination:      082.5442 deg
RA of node:       218.8519 deg
Eccentricity:    0.0020741
Arg of perigee:   285.6050 deg
Mean anomaly:     074.2835 deg
Mean motion:   13.83645734 rev/day
Decay rate:        3.5e-07 rev/day^2
Epoch rev:           85393
Checksum:              290

Satellite: OKEAN-4
Catalog number: 23317
Epoch time:      10209.68704178
Element set:    0298
Inclination:      082.5431 deg
RA of node:       315.1229 deg
Eccentricity:    0.0023884
Arg of perigee:   104.0278 deg
Mean anomaly:     256.3570 deg
Mean motion:   14.82840466 rev/day
Decay rate:       3.45e-06 rev/day^2
Epoch rev:           85260
Checksum:              299

Satellite: NOAA-14
Catalog number: 23455
Epoch time:      10209.68483216
Element set:    0142
Inclination:      098.8772 deg
RA of node:       290.1377 deg
Eccentricity:    0.0010201
Arg of perigee:   115.6143 deg
Mean anomaly:     244.6097 deg
Mean motion:   14.13790121 rev/day
Decay rate:       -2.8e-07 rev/day^2
Epoch rev:           80336
Checksum:              279

Satellite: NOAA-15
Catalog number: 25338
Epoch time:      10209.72606656
Element set:    0464
Inclination:      098.6212 deg
RA of node:       195.9107 deg
Eccentricity:    0.0009930
Arg of perigee:   318.6546 deg
Mean anomaly:     041.3880 deg
Mean motion:   14.24843510 rev/day
Decay rate:        2.8e-07 rev/day^2
Epoch rev:           63466
Checksum:              307

Satellite: RESURS
Catalog number: 25394
Epoch time:      10209.65768786
Element set:    0565
Inclination:      098.3046 deg
RA of node:       225.4797 deg
Eccentricity:    0.0002493
Arg of perigee:   091.2430 deg
Mean anomaly:     268.9037 deg
Mean motion:   14.24206539 rev/day
Decay rate:       -1.5e-07 rev/day^2
Epoch rev:           62625
Checksum:              316

Satellite: FENGYUN1
Catalog number: 25730
Epoch time:      10209.87110334
Element set:    0100
Inclination:      098.7857 deg
RA of node:       173.7405 deg
Eccentricity:    0.0022310
Arg of perigee:   144.9640 deg
Mean anomaly:     215.2987 deg
Mean motion:   14.08222558 rev/day
Decay rate:       9.31e-06 rev/day^2
Epoch rev:           57755
Checksum:              287

Satellite: OKEAN-0
Catalog number: 25860
Epoch time:      10210.71785036
Element set:      59
Inclination:      097.8355 deg
RA of node:       181.9779 deg
Eccentricity:    0.0000960
Arg of perigee:   046.1245 deg
Mean anomaly:     314.0039 deg
Mean motion:   14.73651322 rev/day
Decay rate:        4.6e-07 rev/day^2
Epoch rev:           59316
Checksum:              291

Satellite: NOAA-16
Catalog number: 26536
Epoch time:      10209.66316794
Element set:    0941
Inclination:      099.1694 deg
RA of node:       228.1082 deg
Eccentricity:    0.0009941
Arg of perigee:   217.5111 deg
Mean anomaly:     142.5357 deg
Mean motion:   14.12571040 rev/day
Decay rate:       1.78e-06 rev/day^2
Epoch rev:           50768
Checksum:              303

Satellite: NOAA-17
Catalog number: 27453
Epoch time:      10209.72843161
Element set:    0938
Inclination:      098.4289 deg
RA of node:       258.4942 deg
Eccentricity:    0.0012038
Arg of perigee:   021.1400 deg
Mean anomaly:     339.0265 deg
Mean motion:   14.24177325 rev/day
Decay rate:       2.00e-06 rev/day^2
Epoch rev:           42061
Checksum:              278

Satellite: NOAA-18
Catalog number: 28654
Epoch time:      10209.77236527
Element set:    0423
Inclination:      098.9516 deg
RA of node:       155.9205 deg
Eccentricity:    0.0013508
Arg of perigee:   298.5873 deg
Mean anomaly:     061.3944 deg
Mean motion:   14.11374774 rev/day
Decay rate:       2.18e-06 rev/day^2
Epoch rev:           26730
Checksum:              323

